TimeMST,TemperatureF,Dew PointF,Humidity,Sea Level PressureIn,VisibilityMPH,Wind Direction,Wind SpeedMPH,Gust SpeedMPH,PrecipitationIn,Events,Conditions,WindDirDegrees,DateUTC
12:12 AM,10.4,-4.0,52,30.13,10.0,NNW,25.3,-,N/A,,Clear,330,2014-01-06 07:12:00
12:32 AM,10.4,-4.0,52,30.15,10.0,NNW,25.3,33.4,N/A,,Clear,330,2014-01-06 07:32:00
12:52 AM,10.4,-5.8,48,30.15,10.0,NNW,19.6,28.8,N/A,,Clear,340,2014-01-06 07:52:00
1:12 AM,10.4,-5.8,48,30.16,10.0,NNW,18.4,26.5,N/A,,Clear,340,2014-01-06 08:12:00
1:32 AM,10.4,-5.8,48,30.17,10.0,NNW,20.7,26.5,N/A,,Clear,330,2014-01-06 08:32:00
1:52 AM,10.4,-5.8,48,30.18,10.0,NW,20.7,28.8,N/A,,Clear,320,2014-01-06 08:52:00
2:12 AM,10.4,-5.8,48,30.19,10.0,NW,18.4,25.3,N/A,,Clear,320,2014-01-06 09:12:00
2:32 AM,8.6,-5.8,52,30.20,10.0,NW,15.0,24.2,N/A,,Clear,320,2014-01-06 09:32:00
2:52 AM,8.6,-7.6,48,30.21,10.0,North,11.5,-,N/A,,Clear,350,2014-01-06 09:52:00
3:12 AM,6.8,-7.6,52,30.22,10.0,North,13.8,-,N/A,,Clear,360,2014-01-06 10:12:00
3:32 AM,6.8,-7.6,52,30.22,10.0,North,15.0,-,N/A,,Clear,350,2014-01-06 10:32:00
3:52 AM,6.8,-7.6,52,30.22,10.0,North,13.8,-,N/A,,Clear,360,2014-01-06 10:52:00
4:12 AM,6.8,-7.6,52,30.22,10.0,North,15.0,-,N/A,,Clear,350,2014-01-06 11:12:00
4:32 AM,6.8,-7.6,52,30.23,10.0,NNW,12.7,17.3,N/A,,Clear,340,2014-01-06 11:32:00
4:52 AM,6.8,-7.6,52,30.23,10.0,North,15.0,-,N/A,,Clear,350,2014-01-06 11:52:00
5:12 AM,6.8,-7.6,52,30.24,10.0,NNW,11.5,-,N/A,,Clear,340,2014-01-06 12:12:00
5:32 AM,5.0,-9.4,52,30.25,10.0,NNW,8.1,-,N/A,,Clear,340,2014-01-06 12:32:00
5:52 AM,3.2,-9.4,56,30.26,10.0,NNW,4.6,-,N/A,,Clear,330,2014-01-06 12:52:00
6:12 AM,6.8,-9.4,48,30.27,10.0,NNW,6.9,-,N/A,,Clear,340,2014-01-06 13:12:00
6:32 AM,8.6,-7.6,48,30.26,10.0,NNW,13.8,-,N/A,,Clear,340,2014-01-06 13:32:00
6:52 AM,6.8,-7.6,52,30.27,10.0,North,10.4,-,N/A,,Clear,350,2014-01-06 13:52:00
7:12 AM,3.2,-11.2,51,30.28,10.0,ESE,4.6,-,N/A,,Clear,110,2014-01-06 14:12:00
7:32 AM,5.0,-9.4,52,30.29,10.0,SSW,3.5,-,N/A,,Clear,210,2014-01-06 14:32:00
7:51 AM,3.2,-9.4,56,30.30,10.0,Calm,Calm,-,N/A,,Clear,0,2014-01-06 14:51:00
8:11 AM,8.6,-9.4,44,30.31,10.0,North,3.5,-,N/A,,Clear,360,2014-01-06 15:11:00
8:31 AM,5.0,-9.4,52,30.33,10.0,Calm,Calm,-,N/A,,Clear,0,2014-01-06 15:31:00
8:52 AM,8.6,-7.6,48,30.34,10.0,NNW,3.5,-,N/A,,Clear,330,2014-01-06 15:52:00
9:12 AM,12.2,-5.8,45,30.34,10.0,WNW,5.8,-,N/A,,Clear,300,2014-01-06 16:12:00
9:32 AM,14.0,-5.8,41,30.34,10.0,NNW,6.9,-,N/A,,Clear,340,2014-01-06 16:32:00
9:52 AM,15.8,-4.0,41,30.34,10.0,WNW,11.5,-,N/A,,Clear,300,2014-01-06 16:52:00
10:12 AM,17.6,-2.2,42,30.34,10.0,WNW,13.8,-,N/A,,Clear,300,2014-01-06 17:12:00
10:32 AM,19.4,-2.2,39,30.34,10.0,NW,10.4,-,N/A,,Clear,320,2014-01-06 17:32:00
10:52 AM,12.2,-2.2,53,30.34,10.0,East,9.2,-,N/A,,Clear,100,2014-01-06 17:52:00
11:12 AM,12.2,-2.2,53,30.33,10.0,ESE,10.4,-,N/A,,Clear,120,2014-01-06 18:12:00
11:32 AM,10.4,-4.0,52,30.33,10.0,ESE,8.1,-,N/A,,Clear,120,2014-01-06 18:32:00
11:52 AM,10.4,-4.0,52,30.32,10.0,SSE,8.1,-,N/A,,Clear,160,2014-01-06 18:52:00
12:12 PM,12.2,-2.2,53,30.31,10.0,SSE,8.1,-,N/A,,Clear,150,2014-01-06 19:12:00
12:32 PM,12.2,-4.0,48,30.30,10.0,SE,5.8,-,N/A,,Clear,140,2014-01-06 19:32:00
12:52 PM,14.0,-2.2,49,30.29,10.0,Calm,Calm,-,N/A,,Clear,0,2014-01-06 19:52:00
1:12 PM,15.8,-2.2,45,30.28,10.0,Calm,Calm,-,N/A,,Clear,0,2014-01-06 20:12:00
1:32 PM,15.8,-2.2,45,30.28,10.0,Calm,Calm,-,N/A,,Clear,0,2014-01-06 20:32:00
1:52 PM,15.8,-2.2,45,30.28,10.0,ESE,3.5,-,N/A,,Clear,120,2014-01-06 20:52:00
2:11 PM,15.8,-0.4,49,30.28,10.0,ESE,5.8,-,N/A,,Clear,120,2014-01-06 21:11:00
2:32 PM,14.0,-2.2,49,30.28,10.0,SSE,6.9,-,N/A,,Clear,160,2014-01-06 21:32:00
2:52 PM,14.0,-2.2,49,30.29,10.0,SE,8.1,-,N/A,,Clear,130,2014-01-06 21:52:00
3:12 PM,14.0,-0.4,53,30.29,10.0,SE,9.2,-,N/A,,Clear,130,2014-01-06 22:12:00
3:31 PM,14.0,-0.4,53,30.29,10.0,SE,10.4,-,N/A,,Clear,140,2014-01-06 22:31:00
3:52 PM,14.0,-0.4,53,30.29,10.0,SE,9.2,-,N/A,,Clear,130,2014-01-06 22:52:00
4:12 PM,12.2,-2.2,53,30.29,10.0,ESE,8.1,-,N/A,,Clear,120,2014-01-06 23:12:00
4:32 PM,10.4,-2.2,57,30.29,10.0,East,4.6,-,N/A,,Clear,90,2014-01-06 23:32:00
4:52 PM,8.6,-4.0,57,30.29,10.0,SSE,4.6,-,N/A,,Clear,160,2014-01-06 23:52:00
5:12 PM,6.8,-2.2,67,30.31,10.0,South,3.5,-,N/A,,Clear,170,2014-01-07 00:12:00
5:32 PM,6.8,-4.0,61,30.31,10.0,Calm,Calm,-,N/A,,Clear,0,2014-01-07 00:32:00
5:52 PM,6.8,-4.0,61,30.31,10.0,Calm,Calm,-,N/A,,Clear,0,2014-01-07 00:52:00
6:11 PM,5.0,-7.6,56,30.32,10.0,Calm,Calm,-,N/A,,Clear,0,2014-01-07 01:11:00
6:32 PM,-0.4,-9.4,66,30.32,10.0,Calm,Calm,-,N/A,,Clear,0,2014-01-07 01:32:00
6:52 PM,-0.4,-9.4,66,30.32,10.0,Calm,Calm,-,N/A,,Clear,0,2014-01-07 01:52:00
7:12 PM,1.4,-9.4,61,30.32,10.0,North,3.5,-,N/A,,Clear,350,2014-01-07 02:12:00
7:31 PM,1.4,-9.4,61,30.33,10.0,North,4.6,-,N/A,,Clear,360,2014-01-07 02:31:00
7:51 PM,5.0,-9.4,52,30.32,10.0,Calm,Calm,-,N/A,,Clear,0,2014-01-07 02:51:00
8:12 PM,5.0,-9.4,52,30.32,10.0,Calm,Calm,-,N/A,,Clear,0,2014-01-07 03:12:00
8:32 PM,-0.4,-11.2,60,30.33,10.0,ENE,3.5,-,N/A,,Clear,60,2014-01-07 03:32:00
8:52 PM,-0.4,-9.4,66,30.33,10.0,Calm,Calm,-,N/A,,Clear,0,2014-01-07 03:52:00
9:12 PM,-0.4,-11.2,60,30.33,10.0,NNW,3.5,-,N/A,,Clear,330,2014-01-07 04:12:00
9:32 PM,-0.4,-11.2,60,30.33,10.0,NNE,9.2,-,N/A,,Clear,20,2014-01-07 04:32:00
9:52 PM,1.4,-9.4,61,30.33,10.0,NNW,5.8,-,N/A,,Clear,340,2014-01-07 04:52:00
10:12 PM,3.2,-9.4,56,30.34,10.0,Calm,Calm,-,N/A,,Clear,0,2014-01-07 05:12:00
10:32 PM,3.2,-9.4,56,30.33,10.0,NE,3.5,-,N/A,,Clear,50,2014-01-07 05:32:00
10:52 PM,1.4,-11.2,56,30.33,10.0,Calm,Calm,-,N/A,,Clear,0,2014-01-07 05:52:00
11:12 PM,-0.4,-9.4,66,30.32,10.0,NNE,5.8,-,N/A,,Clear,20,2014-01-07 06:12:00
11:32 PM,3.2,-7.6,61,30.31,10.0,Calm,Calm,-,N/A,,Clear,0,2014-01-07 06:32:00
11:52 PM,6.8,-7.6,52,30.31,10.0,East,3.5,-,N/A,,Clear,90,2014-01-07 06:52:00